Погода в Туре

Погода в Туре : погода сейчас, прогноз погоды и архив. Всё, что Вы хотите узнать о погоде в Туре!

Хотите узнать прогноз погоды в Туре? Тогда Вам сюда: Погода в Туре

Поиск расширенной информации на нашем сайте:

Полезная информация: Мини погрузчик мксм 800 купить - купить мини погрузчики мксм-800.

Другие новости

Новости СМИ2

Главная страница сайта

Новости сайта

03.07.2017

Напоминаем, что на нашем специализированном сайте Метеоцентр.Азия вы можете получить высокодетализированные автоматические прогнозы погоды по пунктам России, СНГ и мира в авиационном формате (включающие направление и скорость ветра, видимость, явления погоды, количество и форму облачности, нижнюю и верхнюю границу облачности).

Рекомендуем: авиатуры в германию

Погода в Туре - сегодня

Время (UTC), дата Ветер
(°,м/с) 
Видим.   Явления Облачность Т
(°С)
Тd
(°С)
f(%) Тe
(°С)
Pmin
(гПа)
dP
(гПа)
Po
(мм)
O2
(г/м3)
Тmin Tmax R s Состояние
почвы
21 18.04.18 280 (З) н/о    ясно 
-13.3 -20.4 55 -17  1009.2  0.8  738  314           
00 19.04.18 250 (З) 20000 м    8/0 верхняя 
[Ci fib]
-13.1 -21.3 50 -18  1010  0.8  739  314  -14.6      47  равномерный
сухой снег
100% 
03 19.04.18 240 (ЮЗ) 5{10}  20000 м    3/0 верхняя 
[Ci fib]
-9 -18.4 46 -14  1009.8  0.2  739  309           
09 19.04.18 270 (З) 4{11}  20000 м    6/6 1000 м 
[Cu med, cong]
-4.7 -15.3 43 -8  1010.7  1.1  740  305           
12 19.04.18 280 (З) 20000 м    6/5 600 м кучево-дожд., верхняя 
[Cb cap|Ci fib]
-4.7 -15.3 43 -8  1012  1.2  741  305    -4.3       
15 19.04.18 320 (СЗ) н/о    4/4 1000 м 
[Sc]
-10 -18.5 50 -10  1013.6  1.1  742  312           
18 19.04.18 310 (СЗ) н/о    3/3 1000 м 
[Sc]
-13.8 -19.9 60 -16  1014.6  0.6  742  316           
21 19.04.18 330 (СЗ) н/о    3/3 1000 м 
[Sc]
-16.8 -21 70 -19  1015.6  0.7  743  320           
00 20.04.18 тихо ()   20000 м    3/0 верхняя 
[Ci sp]
-17.7 -21.1 75 -18  1016.7  743  322  -20.1      47  равномерный
сухой снег
100% 
03 20.04.18 тихо ()   20000 м    10/0 верхняя 
[Cs]
-6.4 -15.8 47 -6  1015.1  -0.4  743  308           
06 20.04.18 220 (ЮЗ) 20000 м    10/3 1000 м верхняя 
[Cu hum|Cs]
-1.2 -13.9 37 -4  1014.1  -0.6  743  302           
09 20.04.18 250 (З) 20000 м    10/1 1000 м верхняя 
[Cu hum|Ci fib]
+1 -11.6 38 -1  1013.4  -0.5  742  299           
12 20.04.18 200 (Ю) 20000 м    10/1 1000 м средняя, верхняя 
[Cu Sc|Ac lent|Ci fib]
+0.2 -11.6 41 -2  1013.2  -0.2  742  300    +1.1       
15 20.04.18 110 (В) н/о    6/3 1000 м верхняя 
[Cu Sc|Ci fib]
-1.5 -12.2 44 -2  1013  -0.4  742  302           
18 20.04.18 120 (ЮВ) н/о    10/8 600 м кучево-дожд., верхняя 
[Cb cap|Ci sp]
-3.2 -11 55 -5  1012.1  -1  741  303           
21 20.04.18 120 (ЮВ) н/о    10/8 600 м кучево-дожд., средняя, верхняя 
[Cb cap|Ac trans|Ci sp]
-4.6 -10.3 64 -7  1010.3  -1.8  740  304           
00 21.04.18 360 (С) 10 км  слаб. ливневой снег  10/10 600 м кучево-дожд. 
[Cb cap]
-5.5 -8.1 82 -5  1008.6  -1.8  738  304  -7.6    0.2  47  равномерный
сухой снег
100% 
09 21.04.18 180 (Ю) 20000 м    10/10 600 м кучево-дожд. 
[Cb cap]
+3.4 -3.3 61 +1  1004.3  -0.6  736  293           
12 21.04.18 130 (ЮВ) 4{12}  4000 м  слаб. ливневой дождь со снегом  10/10 600 м кучево-дожд. 
[Cb cap]
+1.8 -0.4 85 1003.7  -0.8  735  294    +3.4  0.2     
15 21.04.18 120 (ЮВ) н/о  {ливн. осадки}  10/10 600 м кучево-дожд. 
[Cb cap]
+3 -0.2 79 +1  1002  -1.5  734  293           
18 21.04.18 140 (ЮВ) н/о  слаб. ливневой дождь  10/10 600 м кучево-дожд. 
[Cb cap]
+3.4 -0.1 78 +1  1000.8  -1.2  733  292           
21 21.04.18 160 (Ю) н/о  {ливн. осадки}  10/10 600 м кучево-дожд. 
[Cb cap]
+4.4 +0.2 74 +4  999.5  -1.1  732  290           
00 22.04.18 170 (Ю) 20000 м  слаб. ливневой дождь  10/10 600 м кучево-дожд. 
[Cb cap]
+5 +1.2 76 +4  999.3  -0.1  732  289  +1.8    0.7  40  равномерный
мокрый или
старый снег
100% 
03 22.04.18 210 (ЮЗ) 20000 м  {ливн. осадки}  10/10 600 м кучево-дожд. 
[Cb cap]
+7.5 +1.3 65 +7  998.4  -0.7  732  287           
09 22.04.18 330 (СЗ) 2000 м  слаб. ливневой снег  10/10 600 м кучево-дожд. 
[Cb cap]
+0.8 +0 94 1000.2  0.3  733  294           
Время (UTC), дата Ветер
(°,м/с) 
Видим.   Явления Облачность Т
(°С)
Тd
(°С)
f(%) Тe
(°С)
Pmin
(гПа)
dP
(гПа)
Po
(мм)
O2
(г/м3)
Тmin Tmax R s Состояние
почвы

Для получения пояснительной информации подведите курсор к названию столбца.

ПОГОДА в Туре - архив

Всё, что Вы хотите узнать о погоде в Туре - удобно и подробно!

Выберите нужную дату (начиная с 1 января 2015* года) и нажмите кнопку "Найти".
Будут отображены архивные сводки погоды по пункту Тура, начиная с указанной даты.


Отображать данные в формате CSV (для использования в таблицах Excel)


Внимание! Наш архив погоды предназначен исключительно для личного некоммерческого использования в познавательных целях. Если Вам необходимы официальные справки о состоянии погоды (для производственных, юридических, коммерческих и т.п. целей), обращайтесь в органы Росгидромета.

*Примечание: данная дата относится к архиву по метеостанциям СССР (Россия, СНГ, Балтия).
Архив по метеостанциям Зарубежной Европы и Азии (кроме Китая) хранится 10 дней, по другим регионам земного шара (Китай, Африка, Америка, Австралия, Океания) - 1 день.

Тура - район местоположения метеостанции


Название, широта, долгота, высота метеостанции:
Тура 64.3°ш. 100.2°д. 168 м над ур. моря [Российская Федерация]

Дополнительная информация

В oтличие oт бoльшинства пoгoдных сайтoв мы публикуем пoдрoбную метеoинфoрмацию в детальнoм прoфессиoнальнoм фoрмате.

Характеристики температуры и влажнoсти вoздуха измеряются на высoте 2 м в тени вдали oт зданий и деревьев.
Скoрoсть ветра измеряется на высoте 10 м (на урoвне рoста челoвека скoрoсть ветра ниже в 1.5-2 раза). Если метеoстанция нахoдится в гoрoде или в лесу, тo скoрoсть ветра занижена на 2-4 м/с пo сравнению с oткрытым местoм. Скoрoсть ветра над акватoриями крупных рек и oзёр, а также на вершинах хoлмoв на 2-5 м/с выше, чем в oбычных услoвиях.
Атмoсфернoе давление в разных тoчках местнoсти мoжет значительнo oтличаться oт давления на метеoстанции, в зависимoсти oт услoвий рельефа (при пoдъёме на 10 м давление пoнижается примернo на 1 мм рт.ст.).